Regional Weather Roundup
Issued by NWS

Home | Current Version | Previous Version | Graphics & Text | Print | Product List | Glossary On
Versions: 1 2 3 4 5 6 7 8 9 10 11 12 13 14 15 16 17 18 19 20 21 22 23 24 25 26 27 28 29 30 31 32 33 34 35 36 37 38 39 40 41 42 43 44 45 46 47 48 49 50
000
ASUS43 KLOT 301800
RWRIL

ILLINOIS REGIONAL WEATHER ROUNDUP
NATIONAL WEATHER SERVICE CHICAGO/ROMEOVILLE IL
100 PM CDT TUE JUN 30 2015

NOTE: "FAIR" INDICATES FEW OR NO CLOUDS BELOW 12,000 FEET WITH NO
SIGNIFICANT WEATHER AND/OR OBSTRUCTIONS TO VISIBILITY.

* THESE STATIONS ARE NOT UNDER NWS QUALITY CONTROL. THEY ALSO MAY NOT
  REPORT WEATHER SUCH AS PRECIPITATION OR FOG.

ILZ001-002-007-009-015-016-024-301900-
NORTHWEST ILLINOIS

CITY           SKY/WX    TMP DP  RH WIND       PRES   REMARKS
MOLINE         SUNNY     80  63  55 N9        29.85S HX  81
6HR MIN TEMP:  65; 6HR MAX TEMP:  80;

STERLING*      MOSUNNY   79  64  61 N8        29.85S HX  81
$$

ILZ003-004-008-010-011-017-018-301900-
NORTH CENTRAL ILLINOIS

CITY           SKY/WX    TMP DP  RH WIND       PRES   REMARKS
ROCKFORD       PTSUNNY   74  61  63 N9        29.86S
6HR MIN TEMP:  62; 6HR MAX TEMP:  75;

$$

ILZ005-006-012>014-019>023-301900-
NORTHEAST ILLINOIS

CITY           SKY/WX    TMP DP  RH WIND       PRES   REMARKS
CHICAGO-OHARE  PTSUNNY   74  61  63 NW10      29.81F
6HR MIN TEMP:  63; 6HR MAX TEMP:  74;

CHICAGO-MIDWAY PTSUNNY   78  61  55 N13       29.81S HX  80
6HR MIN TEMP:  66; 6HR MAX TEMP:  79;

AURORA         MOSUNNY   75  62  64 N12       29.83F
6HR MIN TEMP:  62; 6HR MAX TEMP:  75;

WAUKEGAN         N/A    N/A N/A N/A MISG      29.82S
6HR MIN TEMP:  61; 6HR MAX TEMP:  71;

DUPAGE AIRPORT PTSUNNY   75  62  64 NW12      29.82F
6HR MIN TEMP:  62; 6HR MAX TEMP:  75;

WHEELING       MOSUNNY   74  60  61 N10       29.83S
6HR MIN TEMP:  64; 6HR MAX TEMP:  75;

NORTHERLY ISL    N/A     69  61  75 NE7         N/A
$$

LMZ740>746-301900-
SOUTHERN LAKE MICHIGAN

STATION/POSITION SKY/WX   TEMP    WIND        PRES    VSBY  WAVE
                          AIR SEA DIR/SP/G                  HT/PER
                          (F)     (DEG/KT/KT) (MB)    (MI)  (FT/S)
HARRISON CRIB              66      70/  4/  5   N/A
BURNHAM HARBOR             69      60/  5/ 10   N/A
CALUMET HARBOR             75     300/  3/  7   N/A
BURNS HARBOR               68      CALM  /  1 1010.5R
MICHIGAN CITY              67     320/  5/  5   N/A
MICHIGAN CITY 6N           64 66  340/  4/  6   N/A           1
ST. JOSEPH                 62 65                N/A           1/ 2
$$

ILZ025>027-034>036-040-047-049-050-058-095>099-301900-
WEST-CENTRAL ILLINOIS

CITY           SKY/WX    TMP DP  RH WIND       PRES   REMARKS
QUINCY         SUNNY     79  67  66 W10       29.87F HX  81
MACOMB*        PTSUNNY   78  68  70 NW9       29.88S HX  81
$$

ILZ028>032-037-038-041>044-048-051>054-059>061-301900-
CENTRAL ILLINOIS

CITY           SKY/WX    TMP DP  RH WIND       PRES   REMARKS
DECATUR        SUNNY     81  67  62 W7        29.85F HX  83
PEORIA         SUNNY     82  61  48 N3        29.85S HX  83
6HR MIN TEMP:  67; 6HR MAX TEMP:  82;

SPRINGFIELD    SUNNY     83  68  60 W12       29.84F HX  86
6HR MIN TEMP:  69; 6HR MAX TEMP:  83;

TAYLORVILLE    NOT AVBL
$$

ILZ033-039-045-046-055>057-062-063-301900-
EAST-CENTRAL ILLINOIS

CITY           SKY/WX    TMP DP  RH WIND       PRES   REMARKS
CHAMPAIGN      CLOUDY    79  68  69 W8        29.85F HX  81
MATTOON        SUNNY     81  67  62 VRB7      29.85F HX  83
$$

ILZ079-100>102-301900-
SOUTHWEST ILLINOIS

CITY           SKY/WX    TMP DP  RH WIND       PRES   REMARKS
ALTON          CLOUDY    79  72  78 SW9       29.89F HX  82
CAHOKIA*       SUNNY     83  66  56 W7        29.89F HX  85
SPARTA*        SUNNY     82  66  60 W7        29.91F HX  84
$$

ILZ064>066-069>071-074>076-080>082-084>086-088>090-092>094-301900-
SOUTH-CENTRAL ILLINOIS

CITY           SKY/WX    TMP DP  RH WIND       PRES   REMARKS
CARBONDALE     SUNNY     82  65  56 W7        29.91F HX  84
6HR MIN TEMP:  69; 6HR MAX TEMP:  82;

MARION         CLOUDY    82  66  57 NW9       29.92S HX  85
MT. VERNON     SUNNY     81  66  61 W7        29.90S HX  83
SALEM*         SUNNY     82  68  62 W8        29.89F HX  85
$$

ILZ067-068-072-073-078-083-087-091-301900-
SOUTHEAST ILLINOIS

CITY           SKY/WX    TMP DP  RH WIND       PRES   REMARKS
LAWRENCEVILLE  SUNNY     83  67  58 W13       29.86F HX  85
HARRISBURG*    SUNNY     81  67  62 W7        29.91F HX  84
$$

ABBREVIATIONS USED IN REMARKS
   TC - TEMPERATURE IN CELSIUS
  WCI - WIND CHILL INDEX
   HX - HEAT INDEX
  VSB - VISIBILITY
$$




USA.gov is the U.S. government's official web portal to all federal, state and local government web resources and services.